This is the latest recevied weather packets stored in our database for station/object HB9HFD-13. If no packets are shown the sender has not sent any weather packets the latest 10 day(s).
| Time | Temp. | Humidity | Pressure | Rain* | Wind** | Luminosity | Snow |
|---|---|---|---|---|---|---|---|
| 1777972479 | 12.78° C | 92% | 1007.8 hPa | 0 mm | - | - | - |
| 1777972179 | 12.78° C | 92% | 1007.8 hPa | 0 mm | - | - | - |
| 1777971879 | 12.78° C | 93% | 1007.8 hPa | 0 mm | - | - | - |
| 1777971578 | 12.78° C | 93% | 1007.9 hPa | 0 mm | - | - | - |
| 1777971278 | 12.78° C | 94% | 1007.8 hPa | 0 mm | - | - | - |
| 1777970978 | 12.22° C | 94% | 1007.8 hPa | 0 mm | - | - | - |
| 1777970677 | 12.22° C | 94% | 1007.8 hPa | 0 mm | - | - | - |
| 1777970377 | 12.22° C | 94% | 1007.8 hPa | 0 mm | - | - | - |
| 1777970077 | 12.22° C | 94% | 1007.8 hPa | 0 mm | - | - | - |
| 1777969777 | 12.22° C | 95% | 1007.7 hPa | 0 mm | - | - | - |
| 1777969476 | 11.67° C | 94% | 1007.7 hPa | 0 mm | - | - | - |
| 1777969176 | 12.22° C | 95% | 1007.8 hPa | 0 mm | - | - | - |
| 1777968876 | 11.67° C | 95% | 1007.8 hPa | 0 mm | - | - | - |
| 1777968576 | 11.67° C | 95% | 1007.9 hPa | 0 mm | - | - | - |
| 1777968275 | 11.67° C | 95% | 1007.9 hPa | 0 mm | - | - | - |
| 1777967975 | 11.67° C | 95% | 1007.8 hPa | 0 mm | - | - | - |
| 1777967675 | 11.11° C | 95% | 1007.9 hPa | 0 mm | - | - | - |
| 1777967375 | 11.67° C | 95% | 1007.9 hPa | 0 mm | - | - | - |
| 1777967074 | 11.11° C | 95% | 1007.8 hPa | 0 mm | - | - | - |
| 1777966774 | 11.11° C | 95% | 1007.7 hPa | 0 mm | - | - | - |
| 1777966474 | 11.11° C | 95% | 1007.8 hPa | 0 mm | - | - | - |
| 1777966174 | 11.11° C | 95% | 1007.6 hPa | 0 mm | - | - | - |
| 1777965873 | 11.11° C | 95% | 1007.6 hPa | 0 mm | - | - | - |
| 1777965573 | 11.11° C | 95% | 1007.8 hPa | 0 mm | - | - | - |
| 1777965273 | 11.11° C | 95% | 1007.7 hPa | 0 mm | - | - | - |
* Rain latest hour (hover to see other rain measurements)
** Current wind speed in m/s (hover to see current wind gust speed)